Shelton, WA

8:35 PM PDT on September 18, 2019 (GMT -0700)
Sanderson

Weather History for KSHN - August, 2019

Change the Weather History Date:

Thursday, August 22, 2019

  Actual Average Record
Temperature  
Mean Temperature 63 °F -  
Max Temperature 71 °F 77 °F 90 °F (1956)
Min Temperature 55 °F 51 °F 42 °F (1973)
Degree Days  
Heating Degree Days 2    
Growing Degree Days 13 (Base 50)    
Moisture  
Dew Point 54 °F    
Average Humidity 79    
Maximum Humidity 93    
Minimum Humidity 57    
Precipitation  
Precipitation 0.02 in - - ()
Sea Level Pressure  
Sea Level Pressure 30.04 in    
Wind  
Wind Speed 6 mph (WSW)    
Max Wind Speed 10 mph    
Max Gust Speed -    
Visibility 8 miles    
Events      
Averages and records for this station are not official NWS values.
T = Trace of Precipitation, MM = Missing Value Source: NWS Daily Summary

Daily Weather History Graph

Daily Weather History Graph

Search for Another Location

Airport or City:

Astronomy

Aug. 22, 2019 Rise Set
Actual Time 6:18 AM PDT 8:11 PM PDT
Civil Twilight 5:45 AM PDT 8:44 PM PDT
Nautical Twilight 5:05 AM PDT 9:24 PM PDT
Astronomical Twilight 4:20 AM PDT 10:08 PM PDT
Moon 11:36 PM PDT (8/22) 1:26 PM PDT (8/22)
Length of Visible Light 14h 58m
Length of Day
13h 53m
Waning Gibbous, 58% of the Moon is Illuminated
Aug 22
Waning Gibbous
Aug 23
Last Quarter
Aug 30
New
Sep 5
First Quarter
Sep 13
Full

Hourly Weather History & Observations

Time (PDT) Temp. Dew Point Humidity Pressure Visibility Wind Dir Wind Speed Gust Speed Precip Events Conditions
12:05 AM 55.9 °F 53.1 °F 90% 29.99 in 3.0 mi WSW 8.1 mph - N/A   Overcast
12:53 AM 55.9 °F 53.1 °F 90% 30.00 in 9.0 mi WSW 5.8 mph - N/A   Overcast
1:53 AM 55.0 °F 52.0 °F 89% 30.00 in 4.0 mi WSW 10.4 mph - 0.01 in   Overcast
2:07 AM 55.0 °F 52.0 °F 89% 30.00 in 3.0 mi WSW 9.2 mph - N/A   Overcast
2:53 AM 55.0 °F 52.0 °F 89% 30.01 in 5.0 mi WSW 5.8 mph - N/A   Overcast
3:01 AM 55.0 °F 52.0 °F 89% 30.01 in 5.0 mi SW 4.6 mph - N/A   Overcast
3:26 AM 55.0 °F 53.1 °F 93% 30.01 in 8.0 mi SW 3.5 mph - N/A   Overcast
3:44 AM 55.0 °F 52.0 °F 89% 30.01 in 3.0 mi Calm Calm - N/A   Overcast
3:53 AM 55.0 °F 52.0 °F 89% 30.01 in 4.0 mi West 3.5 mph - N/A   Overcast
4:53 AM 55.0 °F 52.0 °F 89% 30.04 in 5.0 mi West 3.5 mph - N/A   Overcast
5:53 AM 55.0 °F 53.1 °F 93% 30.03 in 3.0 mi WSW 3.5 mph - 0.01 in   Overcast
6:53 AM 55.0 °F 52.0 °F 89% 30.06 in 10.0 mi WNW 3.5 mph - N/A   Overcast
7:17 AM 55.9 °F 53.1 °F 90% 30.06 in 10.0 mi Calm Calm - N/A   Overcast
7:53 AM 55.9 °F 53.1 °F 90% 30.06 in 10.0 mi West 4.6 mph - N/A   Overcast
8:07 AM 55.9 °F 53.1 °F 90% 30.07 in 10.0 mi West 4.6 mph - N/A   Overcast
8:53 AM 57.9 °F 54.0 °F 87% 30.07 in 10.0 mi SW 6.9 mph - N/A   Overcast
9:17 AM 57.9 °F 53.1 °F 84% 30.08 in 10.0 mi WSW 8.1 mph - N/A   Overcast
9:26 AM 57.9 °F 54.0 °F 87% 30.08 in 10.0 mi West 4.6 mph - N/A   Overcast
9:53 AM 59.0 °F 55.0 °F 87% 30.08 in 10.0 mi WSW 4.6 mph - N/A   Overcast
10:53 AM 61.0 °F 55.0 °F 81% 30.09 in 10.0 mi WSW 4.6 mph - N/A   Overcast
11:03 AM 61.0 °F 55.0 °F 81% 30.09 in 10.0 mi West 5.8 mph - N/A   Overcast
11:53 AM 64.9 °F 55.9 °F 73% 30.09 in 10.0 mi Variable 4.6 mph - N/A   Mostly Cloudy
12:53 PM 69.1 °F 55.9 °F 63% 30.09 in 10.0 mi SSE 8.1 mph - N/A   Mostly Cloudy
1:09 PM 68.0 °F 55.9 °F 65% 30.08 in 10.0 mi SSE 6.9 mph - N/A   Mostly Cloudy
1:53 PM 68.0 °F 54.0 °F 61% 30.08 in 10.0 mi SSW 4.6 mph - N/A   Overcast
2:53 PM 69.1 °F 55.0 °F 61% 30.06 in 10.0 mi SE 6.9 mph - N/A   Overcast
3:10 PM 69.1 °F 55.9 °F 63% 30.06 in 10.0 mi SSE 4.6 mph - N/A   Overcast
3:53 PM 70.0 °F 55.0 °F 59% 30.06 in 10.0 mi Variable 3.5 mph - N/A   Overcast
4:53 PM 71.1 °F 55.0 °F 57% 30.04 in 10.0 mi Calm Calm - N/A   Overcast
5:53 PM 70.0 °F 55.0 °F 59% 30.04 in 10.0 mi South 5.8 mph - N/A   Overcast
6:53 PM 70.0 °F 55.0 °F 59% 30.03 in 10.0 mi Calm Calm - N/A   Mostly Cloudy
7:53 PM 69.1 °F 55.0 °F 61% 30.02 in 10.0 mi East 3.5 mph - N/A   Overcast
8:53 PM 66.0 °F 55.9 °F 70% 30.04 in 10.0 mi WSW 8.1 mph - N/A   Overcast
9:53 PM 61.0 °F 54.0 °F 78% 30.03 in 10.0 mi SW 4.6 mph - N/A   Clear
10:53 PM 59.0 °F 53.1 °F 81% 30.01 in 9.0 mi West 5.8 mph - N/A   Clear
11:53 PM 57.9 °F 53.1 °F 84% 30.01 in 10.0 mi NW 4.6 mph - N/A   Clear